Flag for U.S.A. Weather past 2 weeks in Jefferson City, Missouri, U.S.A.

Now
74 °F

Clear.


Feels Like: 71 °F
Forecast: 73 / 94 °F
Wind: 6 mph from Southeast

Location: Jefferson City Memorial Airport

Current Time: Aug 20, 2014 at 11:53:43 PM

Latest Report: Aug 20, 2014 at 10:53 PM


Visibility: 10 mi

Pressure: 29.90 "Hg

Humidity: 94%

Dew point: 72 °F

Location of Jefferson CityLocation

Historic Weather in Jefferson City — Graph

°F

Jefferson City temperature yesterday

Maximum temperature yesterday: 90 °F (at 4:53 PM)
Minimum temperature yesterday: 66 °F (at 5:53 AM)
Average temperature yesterday: 77 °F

Past Weeks' High & Low Weather Summary

 TemperatureHumidityPressure
High92 °F (Aug 20, 3:53 PM)100% (Aug 19, 5:53 AM)30.13 "Hg (Aug 19, 5:53 AM)
Low58 °F (Aug 14, 4:53 AM)35% (Aug 14, 3:53 PM)29.73 "Hg (Aug 19, 6:53 PM)
Average74 °F78%29.91 "Hg
* Reported Aug 5 9:53 PM — Aug 20 9:53 PM, Jefferson City, Weather by CustomWeather, © 2014

Note: Actual official high and low records may vary slightly from our data, if they occured in-between our weather recording intervals... More about our weather records

Advertising

Jefferson City weather history for previous 24 hours

 ConditionsComfort  
Time TempWeatherWind HumidityBarometerVisibility
9:53 PM
Aug 20
75 °FClear.5 mph90%29.88 "Hg10 mi
8:53 PM75 °FSunny.7 mph94%29.87 "Hg10 mi
7:53 PM77 °FSunny.6 mph94%29.84 "Hg10 mi
6:53 PM80 °FPassing clouds.No wind81%29.85 "Hg10 mi
6:02 PM80 °FStrong thunderstorms. Broken clouds.25 mph76%29.93 "Hg1 mi
5:53 PM88 °FThunderstorms. Broken clouds.8 mph59%29.84 "Hg10 mi
4:53 PM92 °FSunny.8 mph49%29.84 "Hg10 mi
3:53 PM92 °FSunny.5 mph49%29.85 "Hg10 mi
2:53 PM91 °FPassing clouds.7 mph50%29.88 "Hg10 mi
1:53 PM90 °FPassing clouds.5 mph52%29.90 "Hg10 mi
12:53 PM89 °FSunny.7 mph55%29.90 "Hg10 mi
11:53 AM88 °FSunny.9 mph59%29.91 "Hg10 mi
10:53 AM84 °FSunny.8 mph67%29.90 "Hg10 mi
9:53 AM81 °FSunny.6 mph74%29.88 "Hg10 mi
8:53 AM77 °FSunny.No wind85%29.87 "Hg10 mi
7:53 AM73 °FSunny.5 mph90%29.85 "Hg10 mi
6:53 AM71 °FClear.No wind93%29.84 "Hg10 mi
5:53 AM70 °FClear.3 mph93%29.83 "Hg10 mi
4:53 AM70 °FClear.6 mph97%29.81 "Hg8 mi
3:53 AM70 °FClear.3 mph97%29.81 "Hg9 mi
2:53 AM71 °FClear.No wind96%29.81 "Hg10 mi
1:53 AM72 °FClear.No wind93%29.79 "Hg10 mi
12:53 AM74 °FClear.No wind91%29.80 "Hg10 mi
11:53 PM
Aug 19
74 °FClear.No wind91%29.80 "Hg10 mi
Weather by CustomWeather, © 2014

See weather overviewHow to use our weather pages